Location: Rowland
(34.5359°N, 79.2929°W)
Time: 18:58:01
(UTC+00:00)

Sep Motor Cover - Visible Passes

Search period start: 26 May 2024 00:00
Search period end: 05 June 2024 00:00
Orbit: 838 x 1138 km, 71.0° (Epoch: 25 May)

Date Brightness Start Highest point End Pass type
(mag) Time Alt. Az. Time Alt. Az. Time Alt. Az.
26 May ? 04:29:39 10° N 04:35:57 33° ENE 04:36:36 32° ENE visible
26 May ? 06:16:51 10° NW 06:21:31 34° WNW 06:21:31 34° WNW visible
27 May ? 03:15:04 10° NNE 03:16:58 11° NE 03:18:52 10° ENE visible
27 May ? 04:58:44 10° NNW 05:05:14 63° NE 05:05:14 63° NE visible
27 May ? 06:47:50 10° NW 06:50:08 16° WNW 06:50:08 16° WNW visible
28 May ? 03:42:04 10° N 03:47:23 22° NE 03:48:59 21° ENE visible
28 May ? 05:28:20 10° NNW 05:33:53 52° WNW 05:33:53 52° WNW visible
29 May ? 04:10:46 10° N 04:17:26 43° ENE 04:17:41 43° ENE visible
29 May ? 05:58:35 10° NW 06:02:35 26° WNW 06:02:35 26° WNW visible
30 May ? 02:54:58 10° NNE 02:58:41 15° NE 03:01:30 12° ENE visible
30 May ? 04:40:03 10° NNW 04:46:25 74° N 04:46:25 74° N visible
30 May ? 06:30:37 10° WNW 06:31:20 11° WNW 06:31:20 11° WNW visible
31 May ? 03:23:00 10° N 03:28:57 29° ENE 03:30:16 27° ENE visible
31 May ? 05:09:52 10° NNW 05:15:11 42° WNW 05:15:11 42° WNW visible
01 Jun ? 03:51:57 10° NNW 03:58:50 56° ENE 03:59:04 56° ENE visible
01 Jun ? 05:40:34 10° NW 05:43:59 20° W 05:43:59 20° W visible
02 Jun ? 02:35:33 10° N 02:40:20 19° NE 02:42:58 15° E visible
02 Jun ? 04:21:26 10° NNW 04:27:54 70° WNW 04:27:54 70° WNW visible
03 Jun ? 03:04:02 10° N 03:10:26 37° ENE 03:11:50 34° E visible
03 Jun ? 04:51:32 10° NW 04:56:45 33° W 04:56:45 33° W visible
04 Jun ? 01:48:50 10° NNE 01:51:34 12° NE 01:54:15 10° ENE visible
04 Jun ? 03:33:13 10° NNW 03:40:11 74° ENE 03:40:43 70° ESE visible
04 Jun ? 05:22:57 10° WNW 05:25:39 15° W 05:25:39 15° W visible
